Hourly Data Report for October 04, 2015

All times are specified in Local Standard Time (LST). Add 1 hour to adjust for Daylight Saving Time where and when it is observed.

BATHURST A
NEW BRUNSWICK

47°37'47.000" N
65°44'20.000" W
58.80 m
8100505
71574
ZBF

Download Data

Hourly Data (October 2015)
Hourly Data Report for October 4, 2015
Temp Definition
°C
Dew Point Temp Definition
°C
Rel Hum Definition
%
Wind Dir Definition
10's deg

Wind Spd Definition
km/h
Visibility Definition
km
Stn Press Definition
kPa
Hmdx Definition


Wind Chill Definition


Weather Definition


TIME
00:00 Legend Double Dagger 4.1 -0.7 71 29 5 24.1 102.77     LegendNANA
01:00 Legend Double Dagger 3.0 -1.0 75 29 8 24.1 102.74     LegendNANA
02:00 Legend Double Dagger 1.5 -1.2 82 23 3 24.1 102.72     Clear
03:00 Legend Double Dagger -0.6 -1.2 96 21 4 24.1 102.69   -2 LegendNANA
04:00 Legend Double Dagger -0.7 -1.4 95   0 24.1 102.65     LegendNANA
05:00 Legend Double Dagger -0.8 -1.4 96 36 2 24.1 102.68   -1 Clear
06:00 Legend Double Dagger -1.0 -1.4 97   0 24.1 102.70     LegendNANA
07:00 Legend Double Dagger -0.9 -1.6 95 19 3 24.1 102.70   -2 LegendNANA
08:00 Legend Double Dagger 5.4 1.3 75 36 1 24.1 102.74     Mainly Clear
09:00 Legend Double Dagger 8.9 2.0 62 30 5 24.1 102.71     LegendNANA
10:00 Legend Double Dagger 11.1 2.5 55 5 7 24.1 102.68     LegendNANA
11:00 Legend Double Dagger 12.3 3.3 54 18 5 24.1 102.61     Mainly Clear
12:00 Legend Double Dagger 14.0 2.9 47 0 1 24.1 102.56     LegendNANA
13:00 Legend Double Dagger 15.1 2.0 41 6 7 24.1 102.47     LegendNANA
14:00 Legend Double Dagger 14.4 3.9 49 8 9 24.1 102.39     Mostly Cloudy
15:00 Legend Double Dagger 14.5 1.5 41 1 7 24.1 102.36     LegendNANA
16:00 Legend Double Dagger 13.4 5.6 59 5 9 24.1 102.33     LegendNANA
17:00 Legend Double Dagger 11.9 6.4 69 3 3 24.1 102.26     Cloudy
18:00 Legend Double Dagger 8.9 7.0 88 28 3 24.1 102.24     LegendNANA
19:00 Legend Double Dagger 7.9 6.7 92 36 2 19.3 102.21     LegendNANA
20:00 Legend Double Dagger 6.0 5.3 95 23 5 19.3 102.18     Mostly Cloudy
21:00 Legend Double Dagger 5.9 5.5 97 22 7 19.3 102.14     LegendNANA
22:00 Legend Double Dagger 5.8 4.8 93 26 7 19.3 102.13     LegendNANA
23:00 Legend Double Dagger 5.0 4.3 95 20 3 19.3 102.13     Mostly Cloudy

Notes on Data Quality.

Legend

  • E = Estimated
  • M = Missing
  • NA = Not Available
  • ‡ = Partner data that is not subject to review by the National Climate Archives
Date modified: